Location: Marcé
(47.5801°N, 0.3280°W)
Time: 06:22:25
(UTC+01:00)

Altair - Pass Details

Date: 13 December 2021
Orbit: 1501 x 1683 km, 47.2° (Epoch: 21 January)

Event Time Altitude Azimuth Distance (km) Brightness Sun altitude
Rises 16:38:30 0° 266° (W) 4,805 11.1 3.4°
Reaches altitude 10° 16:41:38 10° 266° (W) 3,795 10.6 3.0°
Maximum altitude 16:51:16 89° 179° (S) 1,549 7.7 1.7°
Drops below altitude 10° 17:00:34 10° 90° (E) 3,672 9.0 0.4°
Sets 17:03:34 0° 91° (E) 4,643 9.5 0.0°
